{"data":{"norad_id":56888,"epoch":"2026-05-25T00:43:21.438336Z","epoch_age_seconds":72608,"freshness":"FRESH","line1":"1 56888U 23083N   26145.03010924  .00000705  00000+0  35149-4 0  9995","line2":"2 56888  43.0060  17.6513 0001229 272.9443  87.1268 15.27582021163261","mean_motion":15.27582021,"eccentricity":0.0001229,"inclination_deg":43.006,"raan_deg":17.6513,"arg_perigee_deg":272.9443,"mean_anomaly_deg":87.1268,"bstar":3.5149e-5,"rev_number":16326,"period_min":94.266623998189,"perigee_km":482.19980541781,"apogee_km":483.88628347274,"semimajor_km":6861.1800444453,"source":"CELESTRAK","updated_at":"2026-05-25T13:38:18.169377Z"}}